{"data":{"norad_id":61262,"epoch":"2026-05-24T23:01:53.181120Z","epoch_age_seconds":82540,"freshness":"FRESH","line1":"1 61262U 24175V   26144.95964330 -.00010006  00000+0 -28528-3 0  9998","line2":"2 61262  53.1609 199.5802 0001237  77.4128 282.7013 15.34412768 93139","mean_motion":15.34412768,"eccentricity":0.0001237,"inclination_deg":53.1609,"raan_deg":199.5802,"arg_perigee_deg":77.4128,"mean_anomaly_deg":282.7013,"bstar":-0.00028528,"rev_number":9313,"period_min":93.846977164882,"perigee_km":461.81908404009,"apogee_km":463.51149852695,"semimajor_km":6840.8022912835,"source":"CELESTRAK","updated_at":"2026-05-25T13:38:19.367906Z"}}